Weather History for Indianapolis, IN

Change the Weather History Date:

Thursday, November 20, 2014

  Actual Average Record
Temperature  
Mean Temperature 24 °F 42 °F  
Max Temperature 30 °F 50 °F 75 °F (1942)
Min Temperature 17 °F 33 °F 8 °F (1914)
Degree Days  
Heating Degree Days 41 23  
Month to date heating degree days 589 381  
Since 1 July heating degree days 1003 782  
Cooling Degree Days 0 0  
Month to date cooling degree days 0 0  
Year to date cooling degree days 900 1065  
Moisture  
Dew Point 13 °F    
Average Humidity 62    
Maximum Humidity 74    
Minimum Humidity 50    
Precipitation  
Precipitation T in 0.13 in 1.73 in (1991)
Month to date precipitation 0.67 2.45  
Year to date precipitation 36.89 38.02  
Snow  
Snow 0.00 in 0.00 in 2.40 in (1967)
Month to date snowfall 2.5 0.3  
Since 1 July snowfall 2.6 0.7  
Since 1 September snowfall 2.6 0.7  
Snow Depth 0.00 in    
Sea Level Pressure  
Sea Level Pressure 30.18 in    
Wind  
Wind Speed 14 mph (WSW)    
Max Wind Speed 25 mph    
Max Gust Speed 29 mph    
Visibility 10 miles    
Events Snow    
T = Trace of Precipitation, MM = Missing Value Source: NWS Daily Summary

Daily Weather History Graph

Daily Weather History Graph

Search for Another Location

Airport:

Trip Planner

Search our weather history database for the weather conditions in past years. The results will help you decide how hot, cold, wet, or windy it might be!

Date:

Astronomy

Nov. 20, 2014 Rise Set
Actual Time 7:35 AM EST 5:26 PM EST
Civil Twilight 7:06 AM EST 5:55 PM EST
Nautical Twilight 6:33 AM EST 6:28 PM EST
Astronomical Twilight 6:01 AM EST 7:00 PM EST
Moon 5:30 AM EST (11/20) 4:29 PM EST (11/20)
Length of Visible Light 10h 49m
Length of Day
9h 50m
Waning Crescent, 4% of the Moon is Illuminated
Nov 20
Waning Crescent
Nov 22
New
Nov 29
First Quarter
Dec 6
Full
Dec 14
Last Quarter

Hourly Weather History & Observations

Time (EST) Temp. Windchill Dew Point Humidity Pressure Visibility Wind Dir Wind Speed Gust Speed Precip Events Conditions
12:54 AM 24.1 °F 9.8 °F 12.9 °F 62% 30.11 in 9.0 mi West 19.6 mph 24.2 mph 0.00 in Snow Light Snow
1:54 AM 23.0 °F 8.0 °F 10.0 °F 58% 30.11 in 9.0 mi WNW 20.7 mph 24.2 mph 0.00 in Snow Light Snow
2:54 AM 19.9 °F 8.6 °F 10.9 °F 68% 30.11 in 9.0 mi West 10.4 mph - 0.00 in   Partly Cloudy
3:54 AM 18.0 °F 6.9 °F 10.9 °F 74% 30.11 in 10.0 mi WSW 9.2 mph - N/A   Clear
4:54 AM 19.0 °F 7.5 °F 10.9 °F 71% 30.11 in 10.0 mi WSW 10.4 mph - N/A   Clear
5:54 AM 19.0 °F 7.5 °F 10.9 °F 71% 30.12 in 10.0 mi WSW 10.4 mph - N/A   Clear
6:54 AM 18.0 °F 5.4 °F 10.9 °F 74% 30.14 in 10.0 mi WSW 11.5 mph - N/A   Clear
7:54 AM 18.0 °F 6.9 °F 10.9 °F 74% 30.15 in 10.0 mi WSW 9.2 mph - N/A   Clear
8:54 AM 21.0 °F 8.6 °F 12.9 °F 71% 30.17 in 10.0 mi WSW 12.7 mph - N/A   Clear
9:54 AM 24.1 °F 10.1 °F 14.0 °F 65% 30.19 in 10.0 mi WSW 18.4 mph - N/A   Partly Cloudy
10:54 AM 27.0 °F 13.9 °F 14.0 °F 58% 30.20 in 10.0 mi WSW 18.4 mph - N/A   Scattered Clouds
11:54 AM 28.0 °F 14.9 °F 14.0 °F 56% 30.19 in 10.0 mi WSW 19.6 mph 27.6 mph N/A   Mostly Cloudy
12:54 PM 28.9 °F 15.8 °F 14.0 °F 54% 30.17 in 10.0 mi WSW 20.7 mph - N/A   Scattered Clouds
1:54 PM 28.9 °F 17.3 °F 12.9 °F 51% 30.17 in 10.0 mi WSW 16.1 mph - N/A   Mostly Cloudy
2:54 PM 28.9 °F 15.1 °F 14.0 °F 54% 30.17 in 10.0 mi WSW 23.0 mph - N/A   Scattered Clouds
3:54 PM 28.9 °F 15.4 °F 12.9 °F 51% 30.17 in 10.0 mi WSW 21.9 mph - N/A   Scattered Clouds
4:54 PM 28.0 °F 16.1 °F 12.9 °F 53% 30.18 in 10.0 mi West 16.1 mph - N/A   Scattered Clouds
5:54 PM 26.1 °F 15.0 °F 14.0 °F 60% 30.20 in 10.0 mi West 12.7 mph - N/A   Partly Cloudy
6:54 PM 25.0 °F 13.6 °F 14.0 °F 63% 30.22 in 10.0 mi WSW 12.7 mph - N/A   Scattered Clouds
7:54 PM 24.1 °F 13.7 °F 14.0 °F 65% 30.23 in 10.0 mi WSW 10.4 mph - N/A   Scattered Clouds
8:54 PM 23.0 °F 12.4 °F 14.0 °F 68% 30.24 in 10.0 mi WSW 10.4 mph - N/A   Partly Cloudy
9:54 PM 21.0 °F 10.6 °F 14.0 °F 74% 30.26 in 10.0 mi West 9.2 mph - N/A   Clear
10:54 PM 19.0 °F 10.0 °F 12.9 °F 77% 30.29 in 10.0 mi West 6.9 mph - N/A   Clear
11:54 PM 21.0 °F 12.4 °F 10.9 °F 65% 30.31 in 10.0 mi WNW 6.9 mph - N/A   Clear